Di. 24.03.2020

DruckversionPDF-Version

Nur ganz kurz.

Am Dienstag ging es mir seelisch nicht so gut.

Ein totales Auf und Ab. Eine Achterbahn ist nichts dagegen.

Kurzfassung:

Ab heute haben alle anderen Kollegen Home Office. Irgendwelche Aufgaben hat jeder. Die Hauptverwaltung schickt alle nach Hause.

ABER, in jeder Abteilung muss einer für Post usw anwesend sein. Bei uns bin ich es. 

Post, Telefon, Formulare müssen auch weiter laufen. Geht nicht von zu Hause. 

Briefe/Diktate übernimmt jetzt eine Kollegin von zu Hause aus. 

Einerseits echt schön, so richtig gebraucht zu werden, aber in der aktuellen Situation auch ein ganz blödes Gefühl. 

Nicht für einen Tag, für mindestens bis Ende April, oder auch Ende Mai.

Alle haben Vertrauensarbeitszeit. Ich muss weiter stempeln. Arbeitsweg und mind 8,5 Stunden im Büro sein.

Ein blödes Gefühl für mich.

Abends kamen mir ein paar Tränen. Ich lag schon früh im Bett.

Dazu sind meine Hände, trockene Haut, aufgeplatzt, haben geblutet. Dick eingecremt. 

Hatte eine unruhige Nacht mit Alpträumen. 

TitelAutorDatumBesucher
Do. 13. August 2020PetraM14/08/2020 - 08:2393
Mi. 12. August 2020PetraM13/08/2020 - 08:4663
Di. 11. August 2020PetraM12/08/2020 - 09:03109
Mo. 10. August 2020PetraM11/08/2020 - 08:52120
So. 09. August 2020PetraM10/08/2020 - 08:4948
Sa. 08. August 2020PetraM09/08/2020 - 17:0149
Fr. 07. August 2020PetraM08/08/2020 - 13:1072
Do. 06. August 2020PetraM07/08/2020 - 04:5471
Mi. 05. August 2020PetraM06/08/2020 - 08:45113
Di. 04. August 2020PetraM05/08/2020 - 08:48183
Mo. 03. August 2020PetraM04/08/2020 - 08:4695
So. 02. August 2020PetraM03/08/2020 - 08:3193
Sa. 01. August 2020PetraM02/08/2020 - 16:1696
Fr/Sa 31.07./01.08.2020PetraM01/08/2020 - 21:2793
Fr. 31.07.2020 (Zwischeneintrag)PetraM31/07/2020 - 14:45177
Do. 30. Juli 2020PetraM31/07/2020 - 02:51128
Mi. 29. Juli 2020PetraM30/07/2020 - 08:28137
Di. 28.07.2020PetraM29/07/2020 - 02:10160
Mo. 27. Juli 2020PetraM28/07/2020 - 03:26155
So. 26. Juli 2020PetraM27/07/2020 - 08:59207
Sa. 25. Juli 2020PetraM26/07/2020 - 15:41146
Fr. 24. Juli 2020PetraM25/07/2020 - 14:40146
Do. 23. Juli 2020PetraM24/07/2020 - 08:21207
Mi. 22. Juli 2020PetraM23/07/2020 - 08:47118
Di. 21. Juli 2020PetraM22/07/2020 - 03:33212
onlinetagebuch.com - WIE DAS LEBEN SO SCHREIBT ...